Regional Weather Roundup
Issued by NWS

Home | Current Version | Previous Version | Graphics & Text | Print | Product List | Glossary Off
Versions: 1 2 3 4 5 6 7 8 9 10 11 12 13 14 15 16 17 18 19 20 21 22 23 24 25 26 27 28 29 30 31 32 33 34 35 36 37 38 39 40 41 42 43 44 45 46 47 48 49 50

000
ASUS43 KMKX 311600
RWRWI

WISCONSIN REGIONAL WEATHER ROUNDUP
NATIONAL WEATHER SERVICE MILWAUKEE/SULLIVAN WI
1100 AM CDT MON AUG 31 2015

NOTE: "FAIR" INDICATES FEW OR NO CLOUDS BELOW 12,000 FEET WITH NO
SIGNIFICANT WEATHER AND/OR OBSTRUCTIONS TO VISIBILITY.

WIZ001-002-006>008-014>016-023>028-311700-
NORTHWEST WISCONSIN

CITY           SKY/WX    TMP DP  RH WIND       PRES   REMARKS
SUPERIOR ARPT  SUNNY     74  66  76 SW15      29.89R
ASHLAND        SUNNY     76  66  71 S13       29.92S
HAYWARD        CLOUDY    70  64  81 S15       29.98R
SIREN          PTSUNNY   74  66  77 S10G17    29.94S
CUMBERLAND     CLOUDY    68  64  88 S7        29.98S FOG
RICE LAKE      CLOUDY    68  65  90 S8        30.00S FOG
CHETEK         CLOUDY   N/A N/A N/A S7        30.00R
LADYSMITH      CLOUDY    66  65  97 S9        30.03R FOG
EAU CLAIRE     CLOUDY    71  66  84 S8        29.99S
MENOMONIE      CLOUDY    71  68  92 S9        30.00R FOG
NEW RICHMOND   PTSUNNY   73  68  84 S13G21    29.97R
OSCEOLA        CLOUDY    74  72  94 S12       29.98R
$$

WIZ003>005-009-010-017-018-311700-
NORTH CENTRAL WISCONSIN

CITY           SKY/WX    TMP DP  RH WIND       PRES   REMARKS
MANITOWISH WTR SUNNY     71  65  81 S8        30.00S
ARBOR VITAE    MOSUNNY   72  65  80 S10       30.02R
WOODRUFF       MOSUNNY   72  65  80 S10       30.02R
RHINELANDER    CLOUDY    70  63  78 SW9       30.04S
EAGLE RIVER    SUNNY     71  62  73 SW7       30.02S
LAND O LAKES   SUNNY     73  62  68 S7        30.02S
PHILLIPS       CLOUDY    67  64  91 S8        30.02S
TOMAHAWK       CLOUDY    66  65  96 SW3       30.04S FOG
MEDFORD        CLOUDY    65  65 100 SW6       30.04S FOG
MERRILL        CLOUDY    67  66  99 SW6       30.05R FOG
$$

WIZ029-030-035-036-043>047-311700-
CENTRAL WISCONSIN

CITY           SKY/WX    TMP DP  RH WIND       PRES   REMARKS
WAUSAU         CLOUDY    67  64  90 S5        30.03S FOG
MOSINEE        NOT AVBL
MARSHFIELD     CLOUDY    68  64  87 SW8       30.05R FOG
STEVENS POINT  CLOUDY    65  65 100 CALM      30.06R FOG
WAUPACA        CLOUDY    69  68  96 SW5       30.06R
WAUTOMA        NOT AVBL
WISC RAPIDS    CLOUDY    70  66  87 SW5       30.06R
CAMP DOUGLAS   CLOUDY    72  72 100 S6        30.04S
$$

WIZ011>013-019>022-031-037>040-048>050-311700-
NORTHEAST WISCONSIN

CITY           SKY/WX    TMP DP  RH WIND       PRES   REMARKS
ANTIGO         CLOUDY    66  66 100 W9        30.06R
SHAWANO        CLOUDY    69  67  94 SW6       30.05R
OCONTO         CLOUDY    65  65 100 SW6       30.04R
STURGEON BAY   CLOUDY    66  63  88 W12       30.06S
GREEN BAY      CLOUDY    71  66  84 W8        30.05R
MANITOWOC      PTSUNNY   73  66  78 MISG      30.06R
APPLETON       CLOUDY    70  66  88 SW6       30.05R
CLINTONVILLE   CLOUDY    68  64  88 SW6       30.05R
OSHKOSH        CLOUDY    71  65  81 VRB3      30.06R
$$

WIZ032>034-041-042-053>061-311700-
SOUTHWEST WISCONSIN

CITY           SKY/WX    TMP DP  RH WIND       PRES   REMARKS
LA CROSSE      CLOUDY    71  66  84 S8        30.02S
SPARTA         CLOUDY    70  65  86 S6        30.05R
VIROQUA          N/A     71  71  99 S6        30.06R
BOSCOBEL       SUNNY     75  68  78 CALM      30.04F
PRAIRIE DU CHI SUNNY     72  67  82 CALM      30.03F
PLATTEVILLE    SUNNY     73  71  92 S7        30.07S
$$

WIZ056-057-062-063-064-067-068-311700-
SOUTH CENTRAL WISCONSIN

CITY           SKY/WX    TMP DP  RH WIND       PRES   REMARKS
REEDSBURG      MOSUNNY   72  67  84 S8        30.05S
BARABOO/DELLS  CLOUDY    73  65  77 SW7       30.06S
LONE ROCK      NOT AVBL
MINERAL POINT  SUNNY     73  68  83 S6        30.07S
MADISON        PTSUNNY   73  66  78 S8        30.06S
MIDDLETON      CLOUDY    74  70  85 S7        30.07F
WATERTOWN      CLOUDY    70  70 100 CALM      30.07S
MONROE         SUNNY     73  68  83 S9        30.08R
JANESVILLE     MOSUNNY   72  70  94 S3        30.07F
$$

WIZ051-052-058>065-066-070>072-311700-
SOUTHEAST WISCONSIN

CITY           SKY/WX    TMP DP  RH WIND       PRES   REMARKS
MILWAUKEE      CLOUDY    73  65  75 W7        30.08S
WAUKESHA       CLOUDY    68  64  88 SW6       30.10R
MILWAUKEE/TIMM CLOUDY    72  63  73 W9        30.09R
RACINE         CLOUDY    75  66  73 VRB3      30.10S
BURLINGTON     MOSUNNY   71  69  95 SW3       30.09R
KENOSHA        MOSUNNY   76  68  76 CALM      30.09S HAZE
FOND DU LAC    CLOUDY    71  66  84 SW8       30.07R
SHEBOYGAN      PTSUNNY   74  67  78 W8        30.06S
WEST BEND      CLOUDY    70  63  78 CALM      30.08R
JUNEAU         CLOUDY    67  65  93 CALM      30.09S
$$

LSZ147-162-311700-
LAKE SUPERIOR

STATION/POSITION TIME  TEMP    WIND        PRES    WAVE
                       AIR SEA DIR/SP/G            HT/PER
                 (UTC) (F)     (DEG/KT/KT) (MB)    (FT/S)
W MID LAKE BUOY  1450   58 54  180/  4/  4 1012.7R   1
DEVILS ISLAND    1500   67     210/  3/  4 1012.1F
PORT WING        1500   72     180/ 13/ 16 1012.2F
SAXON HARBOR     1500   74     190/  9/ 17 1012.2S
$$

LMZ867-665-643>646-311700-
LAKE MICHIGAN

STATION/POSITION TIME  TEMP    WIND        PRES    WAVE
                       AIR SEA DIR/SP/G            HT/PER
                 (UTC) (F)     (DEG/KT/KT) (MB)    (FT/S)
CHAMBERS ISLAND  1500   64     210/  3/  8 1016.6R
N MID LAKE BUOY  1450   62 65  210/ 14/ 16 1016.0R   2/ 4
NORTHPORT PIER   1500   66     180/  3/  8 1016.3R
SHEBOYGAN LAKESH 1500   65     180/ 11/ 11 1017.9R
PORT WASHINGTON  1500   62     180/ 10/ 12 1018.6S
S MID LAKE BUOY  1450   66 69  280/  4/  4 1018.7R   0
KENOSHA   LAKESH 1500   60     170/  7/  8 1018.3S
$$

TC  - TEMPERATURE IN CELSIUS
VSB - VISIBILITY IN STATUTE MILES
WCI - WIND CHILL INDEX
HX  - HEAT INDEX



USA.gov is the U.S. government's official web portal to all federal, state and local government web resources and services.